Location: Orinda
(37.8771°N, 122.1797°W)
Time: 21:51:54
(UTC+00:00)

Cosmos 2219 Rocket - Pass Details

Date: 21 October 2019
Orbit: 828 x 846 km, 71.0° (Epoch: 13 November)

Event Time Altitude Azimuth Distance (km) Brightness Sun altitude
Exits shadow 12:47:40 11° 329° (NNW) 2,352 4.2 -19.5°
Drops below altitude 10° 12:48:19 10° 336° (NNW) 2,439 4.4 -19.4°
Sets 12:52:24 0° 5° (N) 3,379 5.4 -18.5°
